Regional Weather Roundup
Issued by NWS Cleveland, OH

Home | Current Version | Previous Version | Graphics & Text | Print | Product List | Glossary On
Versions: 1 2 3 4 5 6 7 8 9 10 11 12 13 14 15 16 17 18 19 20 21 22 23 24 25 26 27 28 29 30 31 32 33 34 35 36 37 38 39 40 41 42 43 44 45 46 47 48 49 50
820
ASUS41 KCLE 130710
RWRCLE
OHIO REGIONAL WEATHER ROUNDUP
NATIONAL WEATHER SERVICE CLEVELAND, OH
200 AM EST SAT FEB 13 2016

NOTE: "FAIR" INDICATES FEW OR NO CLOUDS BELOW 12,000 FEET WITH NO
SIGNIFICANT WEATHER AND/OR OBSTRUCTIONS TO VISIBILITY.

OHZ001>008-015>018-024>027-034-035-043-044-130800-
   NORTHWEST OHIO

CITY           SKY/WX    TMP DP  RH WIND       PRES   REMARKS
DEFIANCE       CLEAR     10  -4  53 N12       30.34R WCI  -5
FINDLAY        MOCLDY    10   1  67 N9        30.29R WCI  -3
TOLEDO EXPRESS PTCLDY     7  -7  52 NW13      30.31R WCI  -9
TOLEDO EXEC    CLEAR      9  -8  46 NW16G24   30.32R WCI  -8
LIMA           MOCLDY    11   5  77 N9        30.29R WCI  -2
$$

OHZ009>014-019>023-028>033-038-089-130800-
   NORTHEAST OHIO

CITY           SKY/WX    TMP DP  RH WIND       PRES   REMARKS
CLE-HOPKINS    CLOUDY    11  -3  53 NW22G31   30.23R WCI  -8
CLE-LAKEFRONT  CLOUDY    14   4  64 NW29G38   30.20R WCI  -7
CUY CO. ARPT   NOT AVBL
LORAIN-ELYRIA  FLURRIES  10  -6  48 N21G28    30.24R WCI  -9
ASHTABULA      CLOUDY    10   0  63 NW18G26   30.13R WCI  -8
AKRON-CANTON   LGT SNOW  10   0  63 NW18      30.14R BLWGSNOWWCI  -8
WOOSTER        CLOUDY    10   1  67 N21G26    30.19R WCI  -9
MANSFIELD      CLOUDY     9   0  67 NW18      30.20R WCI -10
YOUNGSTOWN     LGT SNOW  10   0  63 NW23G30   30.10R WCI -10
$$

OHZ042-051>053-060>062-070>072-077>081-130800-
  SOUTHWEST OHIO

CITY           SKY/WX    TMP DP  RH WIND       PRES   REMARKS
CINC-COVINGTON MOCLDY    18   6  59 N12       30.32R WCI   5
CINC-LUNKEN    PTCLDY    18   8  65 NW12      30.37R WCI   5
HAMILTON       PTCLDY    16   4  59 NW9       30.36R WCI   4
DAYTON         PTCLDY    12   6  77 NW10      30.30R WCI  -1
WRIGHT-PAT AFB PTCLDY    14   5  66 NW9       30.30R WCI   2
DAYTON GENERAL CLEAR     13   4  67 NW9       30.30R WCI   1
WILMINGTON     CLEAR     13   5  70 NW13      30.28R WCI  -2
$$

OHZ036-037-039>041-045>050-054>059-063>069-073>076-082>088-130800-
  CENTRAL AND SOUTHEAST OHIO

CITY           SKY/WX    TMP DP  RH WIND       PRES   REMARKS
COLUMBUS       MOCLDY    14   4  64 NW14      30.25R WCI  -1
OSU AIRPORT    FLURRIES  14   6  70 NW15      30.25R WCI  -1
BOLTON FIELD   LGT SNOW  13   8  81 NW8       30.26R WCI   2
RICKENBACK AFB CLEAR     14   5  68 NW13      30.27R WCI   0
NEWARK         CLOUDY    15   5  64 NW13G23   30.23R WCI   1
MARION         LGT SNOW  12   4  70 N16       30.26R WCI  -5
LANCASTER      PTCLDY    14   5  67 NW13      30.25R WCI   0
ZANESVILLE     CLEAR     16   4  59 NW15G22   30.21R WCI   1
NEW PHILLY     LGT SNOW  14   8  77 NW8G18    30.19R WCI   3
$$




USA.gov is the U.S. government's official web portal to all federal, state and local government web resources and services.